Minneapolis, MN

5:55 AM CDT on June 26, 2017 (GMT -0500)
Minneapolis-Saint Paul International

Weather History for KMSP - November, 2013

Change the Weather History Date:

Tuesday, November 5, 2013

  Actual Average Record
Temperature  
Mean Temperature 38 °F 40 °F  
Max Temperature 45 °F 48 °F 73 °F (2016)
Min Temperature 30 °F 32 °F 3 °F (1951)
Degree Days  
Heating Degree Days 27 25  
Month to date heating degree days 112 121  
Since 1 July heating degree days 665 801  
Cooling Degree Days 0 0  
Month to date cooling degree days 0 0  
Year to date cooling degree days 983 753  
Moisture  
Dew Point 31 °F    
Average Humidity 75    
Maximum Humidity 100    
Minimum Humidity 49    
Precipitation  
Precipitation 0.18 in 0.07 in 0.93 in (1948)
Month to date precipitation 0.35 0.30  
Year to date precipitation 31.14 27.98  
Snow  
Snow 1.80 in 0.20 in 4.20 in (1959)
Month to date snowfall 1.8 0.8  
Since 1 July snowfall 1.8 1.4  
Since 1 September snowfall 1.8 1.4  
Snow Depth T in    
Sea Level Pressure  
Sea Level Pressure 30.12 in    
Wind  
Wind Speed 6 mph (North)    
Max Wind Speed 20 mph    
Max Gust Speed 25 mph    
Visibility 6 miles    
Events Fog , Rain , Snow    
T = Trace of Precipitation, MM = Missing Value Source: NWS Daily Summary

Daily Weather History Graph

Daily Weather History Graph

Search for Another Location

Airport or City:

Trip Planner

Search our weather history database for the weather conditions in past years. The results will help you decide how hot, cold, wet, or windy it might be!

Date:

Astronomy

Nov. 05, 2013 Rise Set
Actual Time 6:56 AM CST 4:55 PM CST
Civil Twilight 6:26 AM CST 5:26 PM CST
Nautical Twilight 5:51 AM CST 6:01 PM CST
Astronomical Twilight 5:16 AM CST 6:35 PM CST
Moon 9:16 AM CST (11/5) 6:53 PM CST (11/5)
Length of Visible Light 11h 00m
Length of Day
9h 58m
Waxing Crescent, 7% of the Moon is Illuminated
Nov 5
Waxing Crescent
Nov 9
First Quarter
Nov 17
Full
Nov 25
Last Quarter
Dec 2
New

Hourly Weather History & Observations

Time (CST) Temp. Windchill Dew Point Humidity Pressure Visibility Wind Dir Wind Speed Gust Speed Precip Events Conditions
12:53 AM 35.1 °F - 34.0 °F 96% 30.19 in 9.0 mi Calm Calm - N/A   Partly Cloudy
1:53 AM 34.0 °F - 33.1 °F 96% 30.19 in 8.0 mi Calm Calm - N/A   Clear
2:53 AM 33.1 °F - 32.0 °F 96% 30.20 in 8.0 mi Calm Calm - N/A   Partly Cloudy
3:37 AM 32.0 °F - 30.2 °F 93% 30.18 in 6.0 mi Calm Calm - N/A Fog Patches of Fog
3:53 AM 32.0 °F - 32.0 °F 100% 30.20 in 6.0 mi Calm Calm - N/A Fog Patches of Fog
4:53 AM 32.0 °F - 30.9 °F 96% 30.22 in 6.0 mi Calm Calm - N/A Fog Patches of Fog
5:53 AM 33.1 °F 30.0 °F 30.9 °F 92% 30.24 in 6.0 mi SW 3.5 mph - N/A   Partly Cloudy
6:53 AM 30.9 °F - 30.0 °F 96% 30.23 in 6.0 mi Calm Calm - N/A Fog Patches of Fog
7:53 AM 33.1 °F - 30.9 °F 92% 30.24 in 8.0 mi Calm Calm - N/A Fog Patches of Fog
8:53 AM 35.1 °F - 30.9 °F 85% 30.25 in 8.0 mi Calm Calm - N/A Fog Patches of Fog
9:53 AM 37.9 °F - 33.1 °F 83% 30.26 in 9.0 mi Calm Calm - N/A   Mostly Cloudy
10:53 AM 39.9 °F - 33.1 °F 77% 30.27 in 9.0 mi Calm Calm - N/A   Mostly Cloudy
11:53 AM 43.0 °F 41.3 °F 30.0 °F 60% 30.24 in 10.0 mi Variable 3.5 mph - N/A   Mostly Cloudy
12:53 PM 45.0 °F 42.6 °F 27.0 °F 49% 30.21 in 10.0 mi NNE 4.6 mph - N/A   Overcast
1:53 PM 45.0 °F 41.2 °F 28.9 °F 53% 30.16 in 10.0 mi NNE 6.9 mph - N/A   Overcast
2:53 PM 44.1 °F 40.8 °F 28.9 °F 55% 30.15 in 10.0 mi NNE 5.8 mph - N/A   Overcast
3:53 PM 43.0 °F 38.2 °F 27.0 °F 53% 30.13 in 10.0 mi North 8.1 mph - N/A   Overcast
4:53 PM 42.1 °F 35.7 °F 27.0 °F 55% 30.12 in 10.0 mi North 11.5 mph - N/A   Overcast
5:53 PM 39.9 °F 31.4 °F 28.0 °F 63% 30.11 in 10.0 mi NE 16.1 mph - 0.00 in Rain Light Rain
6:53 PM 37.9 °F 29.2 °F 30.9 °F 76% 30.09 in 10.0 mi NNE 15.0 mph - 0.00 in Rain Light Rain
7:42 PM 35.6 °F 28.0 °F 32.0 °F 87% 30.05 in 6.0 mi North 10.4 mph 16.1 mph 0.01 in Snow Light Snow
7:53 PM 34.0 °F 26.0 °F 32.0 °F 92% 30.07 in 2.0 mi North 10.4 mph - 0.01 in Snow Light Snow
8:08 PM 33.8 °F 25.8 °F 33.8 °F 100% 30.04 in 1.8 mi North 10.4 mph 21.9 mph 0.02 in Snow Light Snow
8:22 PM 33.8 °F 24.8 °F 33.8 °F 100% 30.02 in 2.5 mi North 12.7 mph - 0.02 in Snow Light Snow
8:30 PM 33.8 °F 25.8 °F 33.8 °F 100% 30.02 in 3.0 mi North 10.4 mph - 0.02 in Snow Light Snow
8:53 PM 34.0 °F 25.5 °F 33.1 °F 96% 30.05 in 3.0 mi North 11.5 mph - 0.03 in Snow Light Snow
9:06 PM 33.8 °F 26.4 °F 33.8 °F 100% 30.02 in 2.0 mi North 9.2 mph - 0.00 in Snow Light Snow
9:30 PM 33.8 °F 26.4 °F 33.8 °F 100% 30.03 in 3.0 mi North 9.2 mph - 0.01 in Snow Light Snow
9:53 PM 33.1 °F 24.9 °F 33.1 °F 100% 30.05 in 3.0 mi North 10.4 mph - 0.02 in Snow Light Snow
10:11 PM 33.8 °F 24.8 °F 32.0 °F 93% 30.02 in 1.8 mi North 12.7 mph - 0.00 in Snow Light Snow
10:26 PM 33.8 °F 24.8 °F 32.0 °F 93% 30.03 in 2.0 mi NNW 12.7 mph - 0.01 in Snow Light Snow
10:53 PM 33.1 °F 25.5 °F 32.0 °F 96% 30.06 in 2.0 mi NNW 9.2 mph - 0.01 in Snow Light Snow
11:18 PM 33.8 °F 25.3 °F 32.0 °F 93% 30.03 in 1.8 mi NNW 11.5 mph - 0.10 in Snow Light Snow
11:34 PM 33.8 °F 25.8 °F 32.0 °F 93% 30.02 in 1.8 mi North 10.4 mph - 0.10 in Snow Light Snow
11:42 PM 33.8 °F 25.3 °F 32.0 °F 93% 30.02 in 2.0 mi North 11.5 mph - 0.10 in Snow Light Snow
11:50 PM 33.8 °F 25.8 °F 32.0 °F 93% 30.02 in 2.0 mi North 10.4 mph - 0.11 in Snow Light Snow
11:53 PM 33.1 °F 24.9 °F 32.0 °F 96% 30.04 in 2.0 mi North 10.4 mph - 0.11 in Snow Light Snow